Hourly Data Report for May 28, 2019

MIRAMICHI RCS
NEW BRUNSWICK
Current Station Operator: ECCC - MSC

47°00'34.000" N
65°27'54.000" W
33.00 m
8100989
71744
ACQ

Download Data

Hourly Data (May 2019)
Hourly Data Report for May 28, 2019
TIME
LST
Temp Definition
°C
Dew Point Definition
°C
Rel Hum Definition
%
Precip. Amount Definition
mm

Wind Dir Definition
10's deg

Wind Spd Definition
km/h
Visibility Definition
km
Stn Press Definition
kPa
Hmdx Definition


Wind Chill Definition


Weather Definition


00:00 5.3 -2.5 57 0.0 29 7   100.89     LegendNANA
01:00 3.5 -2.2 66 0.0 27 8   100.90     LegendNANA
02:00 2.5 -2.3 71 0.0 27 9   100.87     LegendNANA
03:00 2.1 -2.2 73 0.0 27 10   100.89     LegendNANA
04:00 1.3 -2.6 75 0.0 29 8   100.91     LegendNANA
05:00 1.2 -2.8 75 0.0 29 9   100.93     LegendNANA
06:00 3.5 -2.4 65 0.0 28 11   100.98     LegendNANA
07:00 5.7 -2.3 56 0.0 27 12   101.01     LegendNANA
08:00 8.5 -2.6 46 0.0 29 11   101.01     LegendNANA
09:00 10.7 -4.2 35 0.0 30 13   100.97     LegendNANA
10:00 11.9 -4.2 32 0.0 30 18   100.90     LegendNANA
11:00 12.9 -4.5 29 0.0 30 16   100.85     LegendNANA
12:00 14.3 -2.8 30 0.0 28 14   100.78     LegendNANA
13:00 15.9 -3.3 27 0.0 33 14   100.68     LegendNANA
14:00 16.4 -3.2 26 0.0 28 18   100.61     LegendNANA
15:00 17.6 -1.7 27 0.0 27 16   100.56     LegendNANA
16:00 17.6 -3.7 23 0.0 25 15   100.52     LegendNANA
17:00 18.0 -2.9 24 0.0 25 14   100.49     LegendNANA
18:00 17.9 -2.4 25 0.0 24 13   100.47     LegendNANA
19:00 17.2 -1.5 28 0.0 24 13   100.50     LegendNANA
20:00 14.8 -1.0 34 0.0 23 7   100.51     LegendNANA
21:00 12.3 -1.1 40 0.0 24 11   100.55     LegendNANA
22:00 10.7 1.0 51 0.0 22 8   100.59     LegendNANA
23:00 9.7 1.3 56 0.0 23 10   100.60     LegendNANA

Notes on Data Quality.

Legend

  • E = Estimated
  • M = Missing
  • NA = Not Available*
  • [empty] = Indicates an unobserved value
Date modified: